Terminal Aerodrome Forecast
Issued by NWS

Home | Current Version | Previous Version | Text Only | Print | Product List | Glossary On
Versions: 1 2 3 4 5 6 7 8 9 10 11 12 13 14 15 16
000
FTUS45 KTFX 222300
TAFHLN
TAF
KHLN 222330Z 2300/2324 29012KT P6SM BKN080
     FM230600 27008KT P6SM FEW080 SCT200
     FM231900 26008KT P6SM FEW080 BKN140=

USA.gov is the U.S. government's official web portal to all federal, state and local government web resources and services.